Location: Pontbriand
(46.1542°N, 71.2542°W)
Time: 12:31:56
(UTC+00:00)

Envisat - Pass Details

Date: 05 December 2021
Orbit: 764 x 766 km, 98.2° (Epoch: 20 January)

Event Time Altitude Azimuth Distance (km) Brightness Sun altitude
Rises 08:16:19 0° 33° (NNE) 3,243 6.7 -39.9°
Reaches altitude 10° 08:20:11 10° 63° (ENE) 2,309 6.1 -39.2°
Maximum altitude 08:22:13 12° 87° (E) 2,145 6.0 -38.8°
Drops below altitude 10° 08:24:16 10° 111° (ESE) 2,301 6.0 -38.5°
Sets 08:28:06 0° 140° (SE) 3,220 6.6 -37.8°
